Red Oak, IA

5:38 PM CST on February 10, 2016 (GMT -0600)
Red Oak Municipal

Weather History for KRDK - March, 2014

Change the Weather History Date:

Thursday, March 27, 2014

  Actual Average Record
Temperature  
Mean Temperature 45 °F -  
Max Temperature 57 °F 60 °F 80 °F (1988)
Min Temperature 33 °F 32 °F 10 °F (1955)
Degree Days  
Heating Degree Days 20    
Moisture  
Dew Point 41 °F    
Average Humidity 92    
Maximum Humidity 100    
Minimum Humidity 87    
Precipitation  
Precipitation 0.09 in - - ()
Sea Level Pressure  
Sea Level Pressure 29.49 in    
Wind  
Wind Speed 17 mph (SSW)    
Max Wind Speed 29 mph    
Max Gust Speed 37 mph    
Visibility 7 miles    
Events Rain    
Averages and records for this station are not official NWS values.
T = Trace of Precipitation, MM = Missing Value Source: NWS Daily Summary

Daily Weather History Graph

Daily Weather History Graph

Search for Another Location

Airport or City:

Trip Planner

Search our weather history database for the weather conditions in past years. The results will help you decide how hot, cold, wet, or windy it might be!

Date:

Astronomy

Mar. 27, 2014 Rise Set
Actual Time 7:12 AM CDT 7:40 PM CDT
Civil Twilight 6:45 AM CDT 8:08 PM CDT
Nautical Twilight 6:12 AM CDT 8:40 PM CDT
Astronomical Twilight 5:39 AM CDT 9:14 PM CDT
Moon 5:06 AM CDT (3/27) 4:27 PM CDT (3/27)
Length of Visible Light 13h 23m
Length of Day
12h 28m
Waning Crescent, 13% of the Moon is Illuminated
Mar 27
Waning Crescent
Mar 30
New
Apr 7
First Quarter
Apr 15
Full
Apr 22
Last Quarter

Hourly Weather History & Observations

Time (CDT) Temp. Windchill Dew Point Humidity Pressure Visibility Wind Dir Wind Speed Gust Speed Precip Events Conditions
12:15 AM 42.8 °F 33.5 °F 41.0 °F 93% 29.64 in 4.0 mi South 23.0 mph 32.2 mph N/A Rain Light Rain
12:35 AM 42.8 °F 33.3 °F 41.0 °F 93% 29.63 in 4.0 mi South 24.2 mph 32.2 mph N/A   Light Drizzle
12:55 AM 42.8 °F 34.0 °F 41.0 °F 93% 29.62 in 5.0 mi South 20.7 mph 27.6 mph N/A   Overcast
1:15 AM 42.8 °F 34.3 °F 41.0 °F 93% 29.61 in 6.0 mi South 19.6 mph 29.9 mph N/A   Overcast
1:35 AM 42.8 °F 34.5 °F 41.0 °F 93% 29.60 in 8.0 mi South 18.4 mph 28.8 mph N/A   Overcast
1:55 AM 42.8 °F 34.5 °F 41.0 °F 93% 29.59 in 10.0 mi South 18.4 mph 25.3 mph N/A   Light Drizzle
2:15 AM 42.8 °F 34.0 °F 41.0 °F 93% 29.57 in 8.0 mi South 20.7 mph - N/A   Light Drizzle
2:35 AM 42.8 °F 35.1 °F 41.0 °F 93% 29.56 in 5.0 mi South 16.1 mph 25.3 mph N/A   Light Drizzle
2:55 AM 42.8 °F 34.5 °F 41.0 °F 93% 29.55 in 3.0 mi South 18.4 mph 24.2 mph N/A   Light Drizzle
3:15 AM 42.8 °F 34.8 °F 41.0 °F 93% 29.54 in 2.5 mi South 17.3 mph 25.3 mph N/A   Light Drizzle
3:35 AM 42.8 °F 35.1 °F 41.0 °F 93% 29.53 in 2.0 mi South 16.1 mph 21.9 mph N/A   Light Drizzle
3:55 AM 42.8 °F 35.4 °F 41.0 °F 93% 29.52 in 2.0 mi South 15.0 mph 21.9 mph N/A   Light Drizzle
4:15 AM 42.8 °F 35.1 °F 41.0 °F 93% 29.51 in 2.0 mi South 16.1 mph 24.2 mph N/A   Light Drizzle
4:35 AM 42.8 °F 35.1 °F 41.0 °F 93% 29.49 in 2.0 mi South 16.1 mph - N/A   Light Drizzle
4:55 AM 42.8 °F 35.4 °F 42.8 °F 100% 29.49 in 1.8 mi South 15.0 mph 21.9 mph N/A   Light Drizzle
5:15 AM 42.8 °F 35.1 °F 42.8 °F 100% 29.48 in 1.8 mi SSE 16.1 mph - N/A   Light Drizzle
5:35 AM 42.8 °F 36.2 °F 42.8 °F 100% 29.47 in 2.0 mi South 12.7 mph - N/A   Light Drizzle
5:55 AM 42.8 °F 36.2 °F 42.8 °F 100% 29.47 in 2.0 mi SSE 12.7 mph - N/A   Overcast
6:15 AM 42.8 °F 36.2 °F 42.8 °F 100% 29.48 in 2.0 mi South 12.7 mph - N/A   Light Drizzle
6:35 AM 44.6 °F 38.4 °F 42.8 °F 93% 29.46 in 2.0 mi SSE 12.7 mph - N/A   Light Drizzle
6:55 AM 44.6 °F 38.1 °F 42.8 °F 93% 29.45 in 2.5 mi SSE 13.8 mph - N/A   Light Drizzle
7:15 AM 44.6 °F 38.4 °F 42.8 °F 93% 29.44 in 3.0 mi SSE 12.7 mph - N/A   Light Drizzle
7:35 AM 44.6 °F 38.1 °F 44.6 °F 100% 29.44 in 3.0 mi South 13.8 mph - N/A   Light Drizzle
7:55 AM 44.6 °F 38.1 °F 44.6 °F 100% 29.43 in 4.0 mi SSE 13.8 mph - N/A   Light Drizzle
8:15 AM 46.4 °F 39.8 °F 44.6 °F 93% 29.42 in 7.0 mi SSE 16.1 mph 21.9 mph N/A   Overcast
8:35 AM 46.4 °F 40.7 °F 44.6 °F 93% 29.42 in 8.0 mi SSE 12.7 mph - N/A   Overcast
8:55 AM 46.4 °F 41.5 °F 44.6 °F 93% 29.41 in 8.0 mi South 10.4 mph - N/A Rain Light Rain
9:15 AM 46.4 °F 42.9 °F 44.6 °F 93% 29.40 in 8.0 mi South 6.9 mph 13.8 mph N/A Rain Light Rain
9:35 AM 48.2 °F - 46.4 °F 93% 29.39 in 8.0 mi SSE 11.5 mph - N/A Rain Light Rain
9:55 AM 48.2 °F - 46.4 °F 93% 29.38 in 8.0 mi SSE 13.8 mph 19.6 mph N/A Rain Light Rain
10:15 AM 48.2 °F - 46.4 °F 93% 29.38 in 9.0 mi SSE 13.8 mph 20.7 mph N/A Rain Light Rain
10:35 AM 48.2 °F - 46.4 °F 93% 29.37 in 8.0 mi SSE 13.8 mph - N/A Rain Light Rain
10:55 AM 50.0 °F - 48.2 °F 94% 29.36 in 9.0 mi SSE 12.7 mph - N/A Rain Light Rain
11:15 AM 50.0 °F - 48.2 °F 94% 29.35 in 9.0 mi SSE 16.1 mph 21.9 mph N/A Rain Light Rain
11:35 AM 51.8 °F - 48.2 °F 88% 29.34 in 9.0 mi SSE 12.7 mph 19.6 mph N/A Rain Light Rain
11:55 AM 51.8 °F - 50.0 °F 94% 29.33 in 10.0 mi SSE 13.8 mph 21.9 mph N/A   Overcast
12:15 PM 51.8 °F - 50.0 °F 94% 29.33 in 9.0 mi SSE 10.4 mph 18.4 mph N/A   Overcast
12:35 PM 53.6 °F - 50.0 °F 88% 29.32 in 9.0 mi SSE 12.7 mph 18.4 mph N/A   Overcast
12:55 PM 53.6 °F - 51.8 °F 94% 29.31 in 10.0 mi SSE 11.5 mph 18.4 mph N/A   Overcast
1:15 PM 55.4 °F - 51.8 °F 88% 29.30 in 10.0 mi SSE 12.7 mph - N/A   Overcast
1:35 PM 55.4 °F - 51.8 °F 88% 29.29 in 7.0 mi SSE 11.5 mph - N/A Rain Rain
1:55 PM 57.2 °F - 53.6 °F 88% 29.28 in 10.0 mi SSE 11.5 mph - 0.01 in   Mostly Cloudy
2:15 PM 57.2 °F - 53.6 °F 88% 29.27 in 9.0 mi SSE 9.2 mph - N/A   Overcast
2:35 PM 57.2 °F - 53.6 °F 88% 29.26 in 9.0 mi Calm Calm - N/A   Mostly Cloudy
2:55 PM 57.2 °F - 53.6 °F 88% 29.26 in 10.0 mi SW 6.9 mph - 0.07 in   Mostly Cloudy
3:15 PM 48.2 °F - 44.6 °F 87% 29.28 in 10.0 mi NW 21.9 mph 29.9 mph N/A   Overcast
3:35 PM 44.6 °F 35.9 °F 42.8 °F 93% 29.31 in 10.0 mi NW 23.0 mph 34.5 mph N/A   Overcast
3:55 PM 42.8 °F 32.5 °F 41.0 °F 93% 29.34 in 10.0 mi WNW 28.8 mph 35.7 mph 0.01 in   Overcast
4:15 PM 39.2 °F 28.5 °F 37.4 °F 93% 29.36 in 2.5 mi WNW 24.2 mph 36.8 mph N/A Rain Light Rain
4:35 PM 39.2 °F 28.0 °F 37.4 °F 93% 29.37 in 1.8 mi WNW 26.5 mph 36.8 mph N/A Rain Light Rain
4:55 PM 39.2 °F 29.8 °F 37.4 °F 93% 29.40 in 9.0 mi WNW 18.4 mph 28.8 mph N/A Rain Rain
5:15 PM 39.2 °F 28.7 °F 37.4 °F 93% 29.42 in 10.0 mi WNW 23.0 mph 31.1 mph N/A Rain Rain
5:35 PM 39.2 °F 29.3 °F 37.4 °F 93% 29.46 in 8.0 mi West 20.7 mph 28.8 mph N/A Rain Light Rain
5:55 PM 37.4 °F 26.1 °F 35.6 °F 93% 29.47 in 10.0 mi West 24.2 mph 32.2 mph N/A Rain Rain
6:15 PM 37.4 °F 27.2 °F 35.6 °F 93% 29.51 in 10.0 mi West 19.6 mph - N/A Rain Rain
6:35 PM 37.4 °F 27.5 °F 33.8 °F 87% 29.53 in 10.0 mi WNW 18.4 mph 31.1 mph N/A Rain Rain
6:55 PM 35.6 °F 24.2 °F 33.8 °F 93% 29.56 in 10.0 mi WNW 21.9 mph 31.1 mph N/A Rain Rain
7:15 PM 35.6 °F 25.2 °F 32.0 °F 87% 29.58 in 10.0 mi WNW 18.4 mph 31.1 mph N/A Rain Rain
7:55 PM 33.8 °F 21.9 °F 32.0 °F 93% 29.61 in 3.0 mi NW 21.9 mph 35.7 mph N/A Rain Light Rain
8:15 PM 33.8 °F 22.5 °F 32.0 °F 93% 29.65 in 5.0 mi NW 19.6 mph 32.2 mph N/A Rain Light Rain
8:35 PM 33.8 °F 21.3 °F 30.2 °F 87% 29.67 in 10.0 mi NW 24.2 mph 33.4 mph N/A   Light Drizzle
8:55 PM 33.8 °F 21.9 °F 30.2 °F 87% 29.70 in 10.0 mi NW 21.9 mph 32.2 mph N/A   Light Drizzle
9:15 PM 33.8 °F 22.8 °F 30.2 °F 87% 29.72 in 10.0 mi NW 18.4 mph 27.6 mph N/A   Light Drizzle
9:35 PM 33.8 °F 22.8 °F 30.2 °F 87% 29.73 in 10.0 mi NW 18.4 mph 25.3 mph N/A   Light Drizzle
9:55 PM 33.8 °F 23.2 °F 30.2 °F 87% 29.74 in 10.0 mi NW 17.3 mph 25.3 mph N/A   Light Drizzle
10:15 PM 33.8 °F 24.3 °F 30.2 °F 87% 29.76 in 10.0 mi NW 13.8 mph 26.5 mph N/A   Light Drizzle
10:35 PM 33.8 °F 22.8 °F 30.2 °F 87% 29.78 in 10.0 mi NW 18.4 mph - N/A   Light Drizzle
10:55 PM 33.8 °F 24.3 °F 30.2 °F 87% 29.78 in 10.0 mi NW 13.8 mph 21.9 mph N/A   Light Drizzle
11:15 PM 33.8 °F 24.3 °F 30.2 °F 87% 29.79 in 10.0 mi NW 13.8 mph 24.2 mph N/A   Light Drizzle
11:35 PM 33.8 °F 23.5 °F 30.2 °F 87% 29.80 in 10.0 mi NW 16.1 mph 27.6 mph N/A   Light Drizzle
11:55 PM 33.8 °F 23.2 °F 30.2 °F 87% 29.81 in 10.0 mi NNW 17.3 mph 24.2 mph N/A   Light Drizzle